| time (UTC) | temp F | wind direction | speed MPH | gust MPH | rain 1hr in | rain 24hr in | rain mn in | humidity % | barometer mb |
| 20260505041502 | 56 | 30 | 4.0 | 0.0 | 0.00 | 0.00 | 0.00 | 81 | 1004.8 |
| 20260505040003 | 56 | 30 | 4.0 | 0.0 | 0.00 | 0.00 | 0.00 | 81 | 1004.8 |
| 20260505034502 | 56 | 10 | 2.0 | 0.0 | 0.00 | 0.00 | 0.00 | 81 | 1004.9 |
| 20260505033002 | 56 | 10 | 2.0 | 0.0 | 0.00 | 0.00 | 0.00 | 81 | 1004.9 |
| 20260505031502 | 57 | 10 | 2.0 | 0.0 | 0.00 | 0.00 | 0.00 | 77 | 1005.3 |
| 20260505030003 | 57 | 90 | 3.0 | 0.0 | 0.00 | 0.00 | 0.00 | 77 | 1005.3 |
| 20260504204502 | 62 | 30 | 5.0 | 0.0 | 0.00 | 0.00 | 0.00 | 66 | 1006.4 |
| 20260504203002 | 62 | 20 | 4.0 | 0.0 | 0.00 | 0.00 | 0.00 | 66 | 1006.4 |
| 20260504201502 | 62 | 360 | 4.0 | 0.0 | 0.00 | 0.00 | 0.00 | 68 | 1006.3 |
| 20260504200002 | 62 | 360 | 4.0 | 0.0 | 0.00 | 0.00 | 0.00 | 68 | 1006.3 |
| 20260504194502 | 63 | 360 | 4.0 | 0.0 | 0.00 | 0.00 | 0.00 | 66 | 1006.2 |
| 20260504193002 | 63 | 350 | 5.0 | 0.0 | 0.00 | 0.00 | 0.00 | 66 | 1006.2 |
| 20260504191502 | 64 | 350 | 5.0 | 0.0 | 0.00 | 0.00 | 0.00 | 65 | 1006.1 |
| 20260504190002 | 64 | 340 | 6.0 | 0.0 | 0.00 | 0.00 | 0.00 | 65 | 1006.1 |
| 20260504184502 | 66 | 340 | 6.0 | 0.0 | 0.00 | 0.00 | 0.00 | 62 | 1006.0 |
| 20260504183002 | 66 | 340 | 6.0 | 0.0 | 0.00 | 0.00 | 0.00 | 62 | 1006.0 |
| 20260504181503 | 68 | 340 | 6.0 | 0.0 | 0.00 | 0.00 | 0.00 | 58 | 1005.9 |
| 20260504180002 | 68 | 350 | 5.0 | 0.0 | 0.00 | 0.00 | 0.00 | 58 | 1005.9 |
| 20260504174502 | 69 | 350 | 5.0 | 0.0 | 0.00 | 0.00 | 0.00 | 55 | 1005.9 |
| 20260504173003 | 69 | 320 | 6.0 | 0.0 | 0.00 | 0.00 | 0.00 | 55 | 1005.9 |
| 20260504171502 | 69 | 320 | 6.0 | 0.0 | 0.00 | 0.00 | 0.00 | 54 | 1005.8 |
| 20260504081502 | 65 | 280 | 7.0 | 0.0 | 0.00 | 0.00 | 0.00 | 62 | 1007.0 |
| 20260504050002 | 61 | 230 | 4.0 | 0.0 | 0.00 | 0.00 | 0.00 | 63 | 1005.9 |
| 20260504044502 | 61 | 230 | 1.0 | 0.0 | 0.00 | 0.00 | 0.00 | 63 | 1005.5 |
| 20260504043003 | 61 | 230 | 1.0 | 0.0 | 0.00 | 0.00 | 0.00 | 63 | 1005.5 |